星链-6045 (STARLINK-6045 )

导读 | 星芒AI

STARLINK-6045 是 SpaceX Starlink 项目中的一颗低轨通信卫星,属于第 21 批组网卫星(Batch 21)。该卫星于 2022 年 10 月 18 日由猎鹰 9 号火箭从佛罗里达州卡纳维拉尔角发射升空。Starlink 卫星旨在构建全球宽带互联网网络,为偏远地区提供高速网络服务。STARLINK-6045 运行在约 550 公里的轨道高度,设计寿命为 5 至 7 年,具备自动避障和激光通信能力,有助于提升 Starlink 网络的稳定性和覆盖范围。

基本信息
目录编号:
56462
目录名称:
STARLINK-6045
国际标识:
2023-064Q
轨道中心:
EARTH
卫星名称:
星链-6045
卫星全名:
星链-6045 (STARLINK-6045 )
卫星状态:
在轨 (已飞行956 天)
发射日期:
2023-05-10 UTC
国别 :
美国 (US)
星等 :
--
轨道信息
数据来源 国际轨道数据
星历时间: 2025-12-21T11:48:04+0800
13小时前
查看轨道信息
半长轴: 6950.231km
偏心率: 0.0002878
轨道倾角: 69.999°
近地点辐角 266.045°
升交点赤经 302.256°
平近点角 94.038°
近地点: 570.093km
远地点: 574.095km
周期: 96.108分钟
每日圈数: 14.98318
详细信息
固有亮度:
5
最大亮度:
2.5
卫星平台:
Starlink v1.5
覆盖范围:
全球
运营商:
太空探索技术公司
运营商所在国:
美国
制造商(研发单位):
太空探索技术公司
制造商所在国:
美国
使用方式:
暂无
卫星简介
星链(Starlink)计划是由太空探索技术公司(SpaceX)提出的一个巨型低轨卫星互联网星座项目,计划在2019年至2024年间在太空搭建由约1.2万颗卫星组成的“星链”网络,其中1584颗将部署在地球上空550千米处的近地轨道,并从2020年开始工作。该卫星仍在工作。
2D轨道图
3D轨道图
轨道高度分析图
轨道倾角分析图
轨道综合分析图
查看轨道综合分析图